Regional Weather Roundup
Issued by NWS

Home | Current Version | Previous Version | Text Only | Print | Product List | Glossary Off
Versions: 1 2 3 4 5 6 7 8 9 10 11 12 13 14 15 16 17 18 19 20 21 22 23 24 25 26 27 28 29 30 31 32 33 34 35 36 37 38 39 40 41 42 43 44 45 46 47 48 49 50

118
ASUS43 KOAX 080702
RWRNE

WEATHER ROUNDUP FOR NEBRASKA
NATIONAL WEATHER SERVICE OMAHA NE
100 AM CST THU DEC 08 2016

NOTES: SATELLITE DATA IS BEING USED TO AUGMENT CLOUD COVER ABOVE
       12000 FEET.
       "FAIR" INDICATES FEW OR NO CLOUDS BELOW 12,000 FEET WITH NO
       SIGNIFICANT WEATHER AND/OR OBSTRUCTIONS TO VISIBILITY.

  * THESE STATIONS DO NOT REPORT WEATHER SUCH AS RAIN...SNOW OR FOG.

NEZ001>004-019>022-054>056-080800-
NEBRASKA PANHANDLE

CITY           SKY/WX    TMP DP  RH WIND       PRES   REMARKS
SCOTTSBLUFF    CLEAR     -6 -12  75 NW7       30.49R WCI -20
ALLIANCE       CLEAR     -3  -8  79 NW9       30.45R WCI -19
CHADRON        CLEAR      1  -6  72 W12       30.52R WCI -16
SIDNEY         CLEAR     -3  -9  75 W14       30.44F WCI -22
$$

NEZ057>060-069>072-079>082-080800-
SOUTHWEST NEBRASKA

CITY           SKY/WX    TMP DP  RH WIND       PRES   REMARKS
NORTH PLATTE   CLEAR      5  -2  72 W10       30.52S WCI -10
IMPERIAL       CLEAR      2  -6  69 NW13      30.52S WCI -15
MCCOOK         CLEAR      2  -4  76 W15       30.55S WCI -17
$$

NEZ005>010-023>029-035>040-094-080800-
NORTH CENTRAL NEBRASKA

CITY           SKY/WX    TMP DP  RH WIND       PRES   REMARKS
VALENTINE      CLEAR      5  -4  66 NW17      30.50S WCI -14
BROKEN BOW     CLEAR      8  -1  66 NW17      30.50R WCI -10
ORD            CLEAR      9  -2  61 NW16      30.49S WCI  -8
$$

NEZ041-046>049-061>064-073>077-083>087-080800-
SOUTH CENTRAL NEBRASKA

CITY           SKY/WX    TMP DP  RH WIND       PRES   REMARKS
GRAND ISLAND   CLEAR     11   2  67 NW17      30.51S WCI  -6
HASTINGS       CLEAR     12   1  61 NW16      30.52S WCI  -5
KEARNEY *      CLEAR     10  -2  56 NW16G23   30.52S WCI  -7
$$

NEZ011>018-030>034-042>045-080800-
NORTHEAST NEBRASKA

CITY           SKY/WX    TMP DP  RH WIND       PRES   REMARKS
TEKAMAH        CLEAR     14   4  64 NW21      30.46R WCI  -4
$$

NEZ050>053-065>068-078-088>093-080800-
SOUTHEAST NEBRASKA

CITY           SKY/WX    TMP DP  RH WIND       PRES   REMARKS
LINCOLN        CLEAR     15   3  59 NW18      30.51S WCI  -2
OMAHA EPPLEY   CLEAR     15   4  61 NW16G23   30.47S WCI  -1
FALLS CITY     CLEAR     18   7  62 NW13G23   30.49R WCI   5
$$

NEZ044-045-051>053-067-080800-
OMAHA AREA

CITY           SKY/WX    TMP DP  RH WIND       PRES   REMARKS
OMAHA EPPLEY   CLEAR     15   4  61 NW16G23   30.47S WCI  -1
OFFUTT AFB     CLEAR     15   4  62 W17G23    30.47R WCI  -1
$$




USA.gov is the U.S. government's official web portal to all federal, state and local government web resources and services.